AirNav   Air Wisconsin pilot careers
 
 1651 users online  

4K6 Bloomfield Municipal Airport
Bloomfield, Iowa, USA

GOING TO BLOOMFIELD?


FAA INFORMATION EFFECTIVE 03 JANUARY 2019

Location

FAA Identifier: 4K6
Lat/Long: 40-43-55.5800N / 092-25-41.7680W
40-43.926333N / 092-25.696133W
40.7321056 / -92.4282689
(estimated)
Elevation: 888 ft. / 270.7 m (surveyed)
Variation: 02E (2000)
From city: 2 miles SW of BLOOMFIELD, IA
Time zone: UTC -6 (UTC -5 during Daylight Saving Time)
Zip code: 52537

Airport Operations

Airport use: Open to the public
Activation date: 09/1961
Control tower: no
ARTCC: CHICAGO CENTER
FSS: FORT DODGE FLIGHT SERVICE STATION
NOTAMs facility: FOD (NOTAM-D service available)
Attendance: MON-FRI 0830-1730, ALL SAT 0900-1200
Wind indicator: lighted
Segmented circle: no
Lights: ACTVT MIRL RY 18/36 - CTAF.
Beacon: white-green (lighted land airport)
Operates sunset to sunrise.

Airport Communications

CTAF/UNICOM: 122.8
  • APCH/DEP SERVICE PROVIDED BY CHICAGO ARTCC ON FREQS 118.15/354.1 (OTTUMWA RCAG).

Nearby radio navigation aids

VOR radial/distance  VOR name  Freq  Var
OTMr189/18.4OTTUMWA VOR/DME111.6006E
IRKr006/36.6KIRKSVILLE VORTAC114.6006E

 
NDB name  Hdg/Dist  Freq  Var  ID
BLOOMFIELDat field26902EBEX -... . -..-

Airport Services

Fuel available: 100LL
Parking: hangars and tiedowns
Airframe service: MAJOR
Powerplant service: MAJOR
Bottled oxygen: NONE
Bulk oxygen: NONE

Runway Information

Runway 18/36

Dimensions: 3401 x 60 ft. / 1037 x 18 m
Surface: concrete, in good condition
Weight bearing capacity: 
Single wheel: 28.0
Double wheel: 20.0
Runway edge lights: medium intensity
RUNWAY 18  RUNWAY 36
Latitude: 40-44.205800N40-43.645733N
Longitude: 092-25.700167W092-25.693200W
Elevation: 883.0 ft.888.0 ft.
Gradient: 0.3%0.3%
Traffic pattern: leftleft
Runway heading: 177 magnetic, 179 true357 magnetic, 359 true
Markings: nonprecision, in good conditionnonprecision, in good condition
Visual slope indicator: 2-light PAPI on left (3.00 degrees glide path)2-light PAPI on left (3.00 degrees glide path)
Touchdown point: yes, no lightsyes, no lights
Obstructions: 18 ft. tree, 304 ft. from runway, 112 ft. left of centerline, 5:1 slope to clear15 ft. road, 600 ft. from runway, 26:1 slope to clear

Airport Ownership and Management from official FAA records

Ownership: Publicly-owned
Owner: CITY OF BLOOMFIELD
111 W FRANKLIN ST
BLOOMFIELD, IA 52537
Phone 641-664-2260
Manager: CHARLES A. SPARGUR
MUNI ARPT 20956 230TH ST
BLOOMFIELD, IA 52537
Phone 641-664-1255
TONY

Airport Operational Statistics

Aircraft based on the field: 8
Single engine airplanes: 8
    
Aircraft operations: avg 48/week *
57% transient general aviation
43% local general aviation
* for 12-month period ending 21 June 2017

Additional Remarks

FOR SVC AFTER HRS CALL 641-208-6709.

Instrument Procedures

NOTE: All procedures below are presented as PDF files. If you need a reader for these files, you should download the free Adobe Reader.

NOT FOR NAVIGATION. Please procure official charts for flight.
FAA instrument procedures published for use from 3 January 2019 at 0901Z to 31 January 2019 at 0900Z.

 
IAPs - Instrument Approach Procedures
RNAV (GPS) RWY 36   download (150KB)
NDB RWY 36   download (143KB)
NOTE: Special Take-Off Minimums/Departure Procedures apply   download (158KB)

Other nearby airports with instrument procedures:

03D - Memphis Memorial Airport (19 nm SE)
KTVK - Centerville Municipal Airport (22 nm W)
4C8 - Albia Municipal Airport (22 nm NW)
KOTM - Ottumwa Regional Airport (23 nm N)
KFFL - Fairfield Municipal Airport (28 nm NE)
 
Loc | Ops | Rwys | IFR | FBO | Links
Com | Nav | Svcs | Stats | Notes
Area around 4K6 (Bloomfield Municipal Airport)
 
Road maps at: MapQuest Bing Google
 
Aerial photo
No photo
 
Sectional chart

 
Airport distance calculator
Flying to Bloomfield Municipal Airport? Find the distance to fly.

From to 4K6

Sunrise and sunset
Times for 23-Jan-2019
 Local
(UTC-6)
 Zulu
(UTC)
Morning civil twilight06:5912:59
Sunrise07:2813:28
Sunset17:1523:15
Evening civil twilight17:4523:45

Current date and time
Zulu (UTC)  23-Jan-2019 16:57:50
Local (UTC-6)  23-Jan-2019 10:57:50
 
METAR
KTVK 
22nm W 
231635Z AUTO 29008KT 10SM -SN CLR M09/M10 A2999 RMK AO2
KOTM 
22nm N 
231653Z AUTO 31010KT 10SM CLR M08/M11 A2996 RMK AO2 SLP158 T10831111
KFFL 
28nm NE 
231635Z AUTO 31011KT 9SM CLR M08/M12 A2993 RMK AO2 PWINO
KOOA 
30nm N 
231635Z AUTO 31011KT 10SM CLR M08/M11 A2996 RMK AO2 T10841110
KIRK 
38nm S 
231627Z AUTO 29009KT 8SM SCT013 M08/M12 A2999 RMK AO2 T10831117
TAF
KOTM 
22nm N 
231255Z 2313/2412 32017G24KT 4SM -SN SCT022 OVC050 TEMPO 2313/2314 2SM -SN OVC025 FM231400 31016KT 5SM -SN OVC022 FM231500 31014KT P6SM BKN030 FM231900 30011KT P6SM SCT030 FM232100 28009KT P6SM BKN060
NOTAMs
Click for the latest NOTAMs
NOTAMs are issued by the DoD/FAA and will open in a separate window not controlled by AirNav.

 

 
 

FBO, Fuel Providers, and Aircraft Ground Support

  
 Business Name 
 
 Contact 
 
 Services / Description 
 
Fuel Prices
 
Comments
  
Heartland Aviation 641-664-1255
no information available

If you are affiliated with Heartland Aviation and would like to show here your services, contact info, web link, logo, and more, click here
100LL
FS $5.25 
 Updated 02-Jan-2019
 
   write
FS=Full service
Update Fuel Prices
 

Would you like to see your business listed on this page?

 If your business provides an interesting product or service to pilots, flight crews, aircraft, or users of the Bloomfield Municipal Airport, you should consider listing it here.  To start the listing process, click on the button below
 
Add a business
 

Other Pages about Bloomfield Municipal Airport

Page from the Iowa Airport Directory
 
Update a link
 
Copyright © AirNav, LLC. All rights reserved. Privacy Policy  Contact